Regional Weather Roundup
Issued by NWS Bismarck, ND

Home | Current Version | Previous Version | Text Only | Print | Product List | Glossary On
Versions: 1 2 3 4 5 6 7 8 9 10 11 12 13 14 15 16 17 18 19 20 21 22 23 24 25 26 27 28 29 30 31 32 33 34 35 36 37 38 39 40 41 42 43 44 45 46 47 48 49 50
000
ASUS43 KBIS 192110
RWRBIS

NWR BROADCAST TEXT
NATIONAL WEATHER SERVICE BISMARCK ND
400 PM CDT TUE SEP 19 2017

NOTE: "FAIR" INDICATES FEW OR NO CLOUDS BELOW 12,000 FEET WITH NO
SIGNIFICANT WEATHER AND/OR OBSTRUCTIONS TO VISIBILITY.


CITY           SKY/WX    TMP DP  RH WIND       PRES   REMARKS
WILLISTON      CLOUDY    62  48  60 W16       29.49R
MINOT          CLOUDY    65  56  72 SW16G22   29.43S
MINOT AFB      CLOUDY    64  56  77 W10       29.41F
BISMARCK       MOSUNNY   74  53  48 SW8       29.46S
DICKINSON      CLOUDY    59  49  69 W15       29.53R
GARRISON         N/A     63  56  78 W10G22    29.47R
HETTINGER ARPT LGT RAIN  59  51  75 NW14      29.54S
JAMESTOWN      LGT RAIN  67  64  90 SE22G30   29.44F
CARRINGTON     CLOUDY    68  66  94 SE13      29.49F
HAZEN          FAIR      63  55  77 W9        29.49R
LINTON         MOCLDY    73  63  68 S8G15     29.47F
MANDAN         FAIR      72  57  60 W6        29.47S
RUGBY          MOCLDY    66  66 100 SE17      29.42F FOG
STANLEY        MOCLDY    61  57  88 W10       29.49F
TIOGA          CLOUDY    61  55  82 W13       29.49S
WATFORD CITY   MOCLDY    61  48  63 W12G18    29.50R
$$

CITY           SKY/WX    TMP DP  RH WIND       PRES   REMARKS
GRAND FORKS    CLOUDY    75  64  68 SE18G25   29.56R
GRAND FORKS AF CLOUDY    74  62  67 SE20G29   29.55S
DEVILS LAKE    LGT RAIN  65  63  93 SE18G24   29.50F FOG
FARGO          CLOUDY    73  64  73 SE18G32   29.56F
CANDO          MOCLDY    68  68 100 SE28G37   29.49F
CAVALIER       FAIR      68  63  83 SE8G14    29.53F
GRAFTON        FAIR      72  64  78 SE17G24   29.56F
GWINNER        PTCLDY    73  66  78 SE24G33   29.48F
LANGDON        CLOUDY    64  64 100 S17G25    29.58R
ROLLA          CLOUDY    63  63 100 SE18G29   29.46S
WALHALLA       FAIR     N/A N/A N/A S13G20    29.54S
$$

CITY           SKY/WX    TMP DP  RH WIND       PRES   REMARKS
ABERDEEN       CLOUDY    80  67  64 S22G37    29.45F
MOBRIDGE       CLOUDY    76  63  64 S9        29.43S
BUFFALO          N/A     59  47  64 NW18      29.52R
RAPID CITY     MOSUNNY   70  46  43 N15       29.58R
GLASGOW        CLOUDY    57  39  51 W18G25    29.54R
SIDNEY         CLOUDY    63  41  44 NW18G25   29.51R
WOLF POINT     CLOUDY    62  38  40 W15       29.53R
GLENDIVE         N/A     58  38  47 W18       29.57R
MILES CITY     CLOUDY    54  38  54 W21G30    29.64R
BAKER          CLOUDY    56  42  59 W15       29.59R
$$

CITY           SKY/WX    TMP DP  RH WIND       PRES   REMARKS
BILLINGS       CLOUDY    58  33  39 W10G24    29.66F
GREAT FALLS    CLOUDY    54  26  34 W18G26    29.63S
REGINA         PTSUNNY   55  50  82 W18G24    29.42R
ESTEVAN        CLOUDY    61  50  67 W18       29.45R
$$




USA.gov is the U.S. government's official web portal to all federal, state and local government web resources and services.